TimeMDT,TemperatureF,Dew PointF,Humidity,Sea Level PressureIn,VisibilityMPH,Wind Direction,Wind SpeedMPH,Gust SpeedMPH,PrecipitationIn,Events,Conditions,WindDirDegrees,DateUTC
12:53 AM,51.1,28.9,43,29.77,10.0,SE,11.5,-,N/A,,Clear,140,2013-10-03 06:53:00
1:53 AM,51.1,28.0,41,29.75,10.0,SSE,8.1,-,N/A,,Clear,150,2013-10-03 07:53:00
2:53 AM,53.1,27.0,37,29.72,10.0,SSE,8.1,-,N/A,,Clear,160,2013-10-03 08:53:00
3:53 AM,55.9,27.0,33,29.71,10.0,SSE,8.1,-,N/A,,Clear,150,2013-10-03 09:53:00
4:53 AM,51.1,28.9,43,29.72,10.0,SW,8.1,-,N/A,,Clear,230,2013-10-03 10:53:00
5:53 AM,51.1,28.9,43,29.73,10.0,SE,6.9,-,N/A,,Clear,130,2013-10-03 11:53:00
6:53 AM,50.0,28.9,44,29.75,10.0,SSE,8.1,-,N/A,,Clear,150,2013-10-03 12:53:00
7:53 AM,48.0,30.9,52,29.76,10.0,SSE,8.1,-,N/A,,Clear,160,2013-10-03 13:53:00
8:53 AM,57.9,30.0,35,29.74,10.0,East,9.2,-,N/A,,Clear,90,2013-10-03 14:53:00
9:53 AM,64.0,30.0,28,29.71,10.0,ENE,5.8,-,N/A,,Mostly Cloudy,70,2013-10-03 15:53:00
10:53 AM,68.0,28.9,23,29.71,10.0,WSW,15.0,23.0,N/A,,Mostly Cloudy,250,2013-10-03 16:53:00
11:53 AM,70.0,28.0,21,29.68,10.0,SW,18.4,25.3,N/A,,Clear,220,2013-10-03 17:53:00
12:03 PM,71.6,26.6,19,29.86,5.0,SW,20.7,32.2,N/A,,Haze,220,2013-10-03 18:03:00
12:53 PM,72.0,28.0,20,29.64,10.0,WSW,18.4,28.8,N/A,,Clear,250,2013-10-03 18:53:00
1:53 PM,72.0,30.0,21,29.61,10.0,SW,13.8,25.3,N/A,,Partly Cloudy,220,2013-10-03 19:53:00
2:53 PM,70.0,28.9,22,29.59,10.0,SSW,18.4,25.3,N/A,,Partly Cloudy,210,2013-10-03 20:53:00
3:53 PM,69.1,27.0,21,29.57,10.0,SW,20.7,27.6,N/A,,Partly Cloudy,220,2013-10-03 21:53:00
4:53 PM,69.1,27.0,21,29.58,10.0,SW,17.3,33.4,N/A,,Mostly Cloudy,220,2013-10-03 22:53:00
5:53 PM,68.0,30.0,24,29.58,9.0,SW,18.4,36.8,N/A,,Mostly Cloudy,220,2013-10-03 23:53:00
6:53 PM,66.9,30.9,26,29.58,10.0,SSW,13.8,18.4,N/A,,Mostly Cloudy,200,2013-10-04 00:53:00
7:53 PM,55.0,36.0,49,29.64,7.0,NW,23.0,33.4,N/A,,Mostly Cloudy,310,2013-10-04 01:53:00
8:03 PM,51.8,37.4,58,29.80,8.0,NW,29.9,38.0,N/A,,Mostly Cloudy,310,2013-10-04 02:03:00
8:53 PM,42.1,37.0,82,29.78,10.0,NW,28.8,39.1,0.00,Rain,Light Rain,320,2013-10-04 02:53:00
9:11 PM,41.0,35.6,81,29.95,10.0,NNW,12.7,32.2,0.00,,Overcast,330,2013-10-04 03:11:00
10:53 PM,39.0,35.1,86,29.87,10.0,WSW,9.2,18.4,0.02,Rain,Light Rain,250,2013-10-04 04:53:00
11:32 PM,37.4,35.6,93,30.04,8.0,WNW,16.1,-,0.04,Rain,Rain,290,2013-10-04 05:32:00
11:53 PM,37.0,35.1,93,29.90,9.0,West,13.8,-,0.05,Rain,Light Rain,280,2013-10-04 05:53:00